Location: Observatory
(52.1446°N, 0.4624°W)
Time: 11:26:09
(UTC+01:00)

ISS - Pass Details

Date: 06 July 2020
Orbit: 417 x 420 km, 51.6° (Epoch: 02 July)

Event Time Altitude Azimuth Distance (km) Brightness Sun altitude
Exits shadow 02:23:14 23° 171° (S) 947 -2.5 -13.3°
Maximum altitude 02:23:59 25° 148° (SSE) 891 -2.5 -13.3°
Drops below altitude 10° 02:26:48 10° 91° (E) 1,497 -0.7 -13.2°
Sets 02:29:07 0° 78° (ENE) 2,363 0.5 -13.1°
